Time,TemperatureF,DewpointF,PressureIn,WindDirection,WindDirectionDegrees,WindSpeedMPH,WindSpeedGustMPH,Humidity,HourlyPrecipIn,Conditions,Clouds,dailyrainin,SoftwareType,DateUTC
2013-07-10 00:00:00,63.2,0.0,30.06,SE,135,2.0,8.0,0,0.00,,,0.01,VWS V13.01,2013-07-10 04:00:00,
2013-07-10 00:30:00,63.2,0.0,30.06,SE,135,1.0,6.0,0,0.00,,,0.01,VWS V13.01,2013-07-10 04:30:00,
2013-07-10 01:00:00,63.2,0.0,30.05,SE,135,1.0,5.0,0,0.00,,,0.00,VWS V13.01,2013-07-10 05:00:00,
2013-07-10 01:30:00,63.2,0.0,30.05,SE,135,1.0,7.0,0,0.00,,,0.00,VWS V13.01,2013-07-10 05:30:00,
2013-07-10 02:00:00,63.2,0.0,30.04,SSE,158,3.0,7.0,0,0.00,,,0.00,VWS V13.01,2013-07-10 06:00:00,
2013-07-10 02:30:00,63.2,0.0,30.04,SE,135,3.0,7.0,0,0.00,,,0.00,VWS V13.01,2013-07-10 06:30:00,
2013-07-10 03:00:00,63.2,0.0,30.03,SE,135,4.0,10.0,0,0.00,,,0.00,VWS V13.01,2013-07-10 07:00:00,
2013-07-10 03:30:00,63.2,0.0,30.03,ESE,112,2.0,10.0,0,0.00,,,0.00,VWS V13.01,2013-07-10 07:30:00,
2013-07-10 04:00:00,63.2,0.0,30.02,ESE,112,2.0,9.0,0,0.00,,,0.00,VWS V13.01,2013-07-10 08:00:00,
2013-07-10 04:30:00,63.2,0.0,30.02,SE,135,3.0,10.0,0,0.00,,,0.00,VWS V13.01,2013-07-10 08:30:00,
2013-07-10 05:00:00,63.2,0.0,30.00,SSE,158,5.0,10.0,0,0.00,,,0.00,VWS V13.01,2013-07-10 09:00:00,
2013-07-10 05:30:00,63.2,0.0,30.00,SE,135,3.0,9.0,0,0.00,,,0.00,VWS V13.01,2013-07-10 09:30:00,
2013-07-10 06:00:00,63.2,0.0,30.01,SE,135,0.0,2.0,0,0.00,,,0.00,VWS V13.01,2013-07-10 10:00:00,
2013-07-10 06:30:00,63.2,0.0,30.02,SE,135,0.0,0.0,0,0.00,,,0.00,VWS V13.01,2013-07-10 10:30:00,
2013-07-10 06:47:00,63.2,0.0,30.01,SE,135,3.0,9.0,0,0.00,,,0.00,VWS V13.01,2013-07-10 10:47:00,
2013-07-10 07:02:00,63.2,0.0,30.00,ESE,123,0.0,5.0,0,0.00,,,0.00,VWS V13.01,2013-07-10 11:02:00,
2013-07-10 07:32:00,63.2,0.0,30.00,ESE,108,5.0,10.0,0,0.00,,,0.00,VWS V13.01,2013-07-10 11:32:00,
2013-07-10 08:02:00,63.2,0.0,30.00,SSE,153,3.0,10.0,0,0.00,,,0.00,VWS V13.01,2013-07-10 12:02:00,
2013-07-10 08:32:00,64.0,35.8,29.99,SSE,153,11.0,11.0,35,0.00,,,0.00,VWS V13.01,2013-07-10 12:32:00,
2013-07-10 09:02:00,64.1,36.6,29.99,SSE,150,10.0,13.0,36,0.00,,,0.00,VWS V13.01,2013-07-10 13:02:00,
2013-07-10 09:32:00,63.7,37.0,29.97,SE,140,9.0,14.0,37,0.00,,,0.00,VWS V13.01,2013-07-10 13:32:00,
2013-07-10 10:02:00,63.6,37.5,29.98,South,173,7.0,15.0,38,0.00,,,0.00,VWS V13.01,2013-07-10 14:02:00,
2013-07-10 10:32:00,62.5,37.2,29.98,SSE,153,4.0,14.0,39,0.00,,,0.00,VWS V13.01,2013-07-10 14:32:00,
2013-07-10 12:00:00,62.8,36.8,29.97,SE,135,5.0,13.0,38,0.00,,,0.00,VWS V13.01,2013-07-10 16:00:00,
2013-07-10 12:30:00,62.7,36.8,29.96,SSE,158,7.0,14.0,38,0.00,,,0.00,VWS V13.01,2013-07-10 16:30:00,
2013-07-10 13:00:00,63.0,37.0,29.95,SE,135,5.0,12.0,38,0.00,,,0.00,VWS V13.01,2013-07-10 17:00:00,
2013-07-10 13:30:00,64.3,40.1,29.93,SE,135,4.0,12.0,41,0.00,,,0.00,VWS V13.01,2013-07-10 17:30:00,
2013-07-10 14:00:00,64.0,43.9,29.93,SE,135,3.0,10.0,48,0.00,,,0.00,VWS V13.01,2013-07-10 18:00:00,
2013-07-10 14:30:00,64.5,47.0,29.92,SE,135,4.0,10.0,53,0.00,,,0.00,VWS V13.01,2013-07-10 18:30:00,
2013-07-10 15:00:00,62.8,42.8,29.92,SSE,158,6.0,11.0,48,0.00,,,0.00,VWS V13.01,2013-07-10 19:00:00,
2013-07-10 15:30:00,62.4,39.0,29.91,SE,135,7.0,11.0,42,0.00,,,0.00,VWS V13.01,2013-07-10 19:30:00,
2013-07-10 16:00:00,63.2,37.9,29.89,SE,135,6.0,11.0,39,0.00,,,0.00,VWS V13.01,2013-07-10 20:00:00,
2013-07-10 16:30:00,63.8,37.0,29.88,SE,135,6.0,11.0,37,0.00,,,0.00,VWS V13.01,2013-07-10 20:30:00,
2013-07-10 17:00:00,64.3,37.5,29.86,SE,135,6.0,13.0,37,0.00,,,0.00,VWS V13.01,2013-07-10 21:00:00,
2013-07-10 17:30:00,64.1,37.3,29.86,SE,135,4.0,11.0,37,0.00,,,0.00,VWS V13.01,2013-07-10 21:30:00,
2013-07-10 18:00:00,63.9,36.5,29.84,SE,135,3.0,9.0,36,0.00,,,0.00,VWS V13.01,2013-07-10 22:00:00,
2013-07-10 18:30:00,63.9,35.7,29.83,SE,135,4.0,12.0,35,0.00,,,0.00,VWS V13.01,2013-07-10 22:30:00,
2013-07-10 19:00:00,63.9,0.0,29.83,SE,135,7.0,14.0,0,0.00,,,0.00,VWS V13.01,2013-07-10 23:00:00,
2013-07-10 19:30:00,63.9,0.0,29.82,SE,135,7.0,13.0,0,0.00,,,0.00,VWS V13.01,2013-07-10 23:30:00,
2013-07-10 20:00:00,63.9,0.0,29.81,SE,135,7.0,14.0,0,0.00,,,0.00,VWS V13.01,2013-07-11 00:00:00,
2013-07-10 20:30:00,63.9,0.0,29.81,SE,135,6.0,11.0,0,0.00,,,0.00,VWS V13.01,2013-07-11 00:30:00,
2013-07-10 21:00:00,63.9,0.0,29.79,SE,135,5.0,11.0,0,0.00,,,0.00,VWS V13.01,2013-07-11 01:00:00,
2013-07-10 21:30:00,63.9,0.0,29.80,SE,135,3.0,10.0,0,0.00,,,0.00,VWS V13.01,2013-07-11 01:30:00,
2013-07-10 22:00:00,63.9,0.0,29.80,SE,135,1.0,6.0,0,0.00,,,0.00,VWS V13.01,2013-07-11 02:00:00,
2013-07-10 22:30:00,63.9,0.0,29.79,SE,135,2.0,7.0,0,0.00,,,0.00,VWS V13.01,2013-07-11 02:30:00,
2013-07-10 23:00:00,-32.3,0.0,29.78,SE,135,2.0,8.0,0,0.01,,,0.01,VWS V13.01,2013-07-11 03:00:00,
2013-07-10 23:30:00,-26.6,0.0,29.77,SE,135,3.0,7.0,0,0.01,,,0.01,VWS V13.01,2013-07-11 03:30:00,